[[{"header":{"parameterUnit":"m.s-1","parameterCategory":2,"la1":30.2991,"la2":30.254,"lo1":-89.0895,"lo2":-89.0444,"dy":0.0017,"dx":0.0017,"nx":28,"ny":28,"refTime":"2023-07-23T21:00:00:Z","depth":"0","parameterNumber":2,"parameterNumberName":"U-component_of_CURRENTS"},"data":[0,0,0,0,0,0,0,0,0,0,0,0,0,0,0,0,0,0,0,0,0,0,0,0,0,0,0,0,0,0,0,0,0,0,0,0,0,0,0,0,0,0,0,0,0,0,0,0,0,0,0,0,0,0,0,0,0,0,0.1707,0.1708,0,0.1806,0.1807,0.1809,0.1869,0.1869,0.1869,0.1869,0.2045,0.205,0.2055,0,0,0,0,0,0,0,0,0,0,0,0,0,0.1666,0.1666,0.1707,0.1708,0.1709,0.1806,0.1807,0.1809,0.1869,0.1869,0.1869,0.1869,0.2044,0.2049,0.2055,0,0,0,0,0,0,0,0,0,0,0,0,0,0.1719,0.1666,0.1707,0.1748,0.1752,0.1805,0.1807,0.181,0.1869,0.1869,0.1869,0.1869,0.2042,0.2049,0.2056,0.2102,0,0,0.2078,0.2081,0,0,0,0,0,0,0,0,0.1716,0.1721,0.1741,0.1745,0.175,0.1821,0.1857,0.191,0.1869,0.1829,0.1869,0.1869,0.1975,0.1988,0.2011,0.211,0.2118,0.2078,0.2083,0.2086,0.2088,0,0,0,0,0,0,0,0.1712,0.1718,0.175,0.1742,0.1747,0.1793,0.18,0.1868,0.1906,0.1832,0.1836,0.184,0.1979,0.2004,0.2016,0.212,0.2078,0.2084,0.2089,0.2092,0.2312,0.2313,0,0,0,0,0,0,0.1687,0.1714,0.1747,0.1753,0.1728,0.1793,0.1801,0.1802,0.1904,0.1917,0.184,0.1843,0.1992,0.2007,0.2022,0.2127,0.2086,0.2092,0.2096,0.231,0.2312,0.2314,0,0,0,0,0,0,0.1686,0.1689,0.1743,0.1733,0.1742,0.1793,0.1794,0.1804,0.1834,0.1908,0.1924,0.1859,0.1992,0.2012,0.2102,0.2133,0.2095,0.2102,0.2308,0.2311,0.2313,0.2309,0,0,0,0,0,0,0.1684,0.1688,0.1688,0.1731,0.1742,0.1782,0.1794,0.1806,0.1834,0.1839,0.193,0.1946,0.1994,0.2091,0.2109,0.2142,0.2108,0.2306,0.231,0.2312,0.2308,0.2311,0.2315,0,0,0,0,0,0.1682,0.1684,0.1687,0.1691,0.1737,0.1782,0.1793,0.1831,0.1835,0.1856,0.1923,0.1943,0.2122,0.2099,0.2119,0.2155,0.2305,0.2309,0.2312,0.2306,0.2311,0.2314,0,0,0,0,0,0,0.1674,0.1691,0.1695,0.1703,0.1739,0.1791,0.1809,0.1831,0.1899,0.1904,0.1972,0.1994,0.2087,0.212,0.2092,0.2226,0.2214,0.2222,0.2202,0.2207,0.2211,0.2198,0.2113,0,0,0,0,0,0.1666,0.1667,0.1699,0.1708,0.1719,0.1763,0.1785,0.1811,0.1869,0.1897,0.196,0.2033,0.2117,0.2158,0.2234,0.2307,0.2344,0.234,0.2344,0.2347,0.2351,0.2434,0.2445,0.2326,0.2325,0.2325,0,0,0.1665,0.1674,0.1676,0.1706,0.1733,0.1763,0.1778,0.1811,0.1851,0.1908,0.1986,0.2054,0.2142,0.2232,0.2274,0.2262,0.2402,0.2351,0.2353,0.2356,0.2438,0.245,0.246,0.2328,0.2327,0.2327,0,0,0.1669,0.167,0.1675,0.17,0.1733,0.1764,0.1771,0.1824,0.1862,0.1939,0.1999,0.2082,0.2192,0.2268,0.2319,0.2385,0.2423,0.2406,0.2411,0.2492,0.2502,0.2511,0.2574,0.2589,0.24,0.24,0.24,0,0.1669,0.1679,0.169,0.1705,0.1729,0.1761,0.1788,0.1834,0.1916,0.1958,0.1961,0.2143,0.2212,0.2336,0.2364,0.2394,0.2439,0.2386,0.2495,0.2505,0.2515,0.2577,0.2594,0.24,0.24,0.24,0.24,0,0.1682,0.1692,0.1699,0.1726,0.1755,0.1783,0.1833,0.1879,0.1918,0.1969,0.2086,0.2181,0.2285,0.2323,0.237,0.2481,0.249,0.2494,0.2478,0.2527,0.2589,0.2607,0.2401,0.24,0.24,0.24,0,0,0.1691,0.1704,0.1708,0.1724,0.1767,0.1796,0.1855,0.193,0.1978,0.2053,0.2134,0.227,0.2307,0.2367,0.2434,0.2503,0.2615,0.2526,0.253,0.2577,0.2789,0.2753,0.2768,0.2639,0.2642,0.2644,0.2804,0,0.1708,0.1726,0.1736,0.1777,0.18,0.1839,0.1893,0.1961,0.2027,0.2113,0.2205,0.2311,0.2328,0.239,0.2461,0.2593,0.2661,0.2571,0.2745,0.275,0.2703,0.2787,0.2715,0.2849,0.2821,0.2824,0.2826,0,0.1737,0.1742,0.1769,0.1807,0.182,0.1849,0.1938,0.1992,0.2105,0.2158,0.2251,0.2325,0.2463,0.2458,0.2664,0.2607,0.2697,0.2775,0.2783,0.2761,0.2746,0.2799,0.2881,0.2701,0.2853,0.2851,0.2849,0,0.176,0.178,0.18,0.1812,0.1853,0.1881,0.1916,0.201,0.2063,0.2196,0.2248,0.2393,0.2481,0.2612,0.2748,0.273,0.2955,0.295,0.2996,0.2994,0.2973,0.2963,0.2893,0.3089,0.3088,0.3088,0.3087,0,0.1793,0.1815,0.1805,0.1819,0.1852,0.1884,0.1944,0.2004,0.2092,0.2163,0.2269,0.2354,0.2525,0.2659,0.2776,0.2934,0.2977,0.3021,0.3045,0.2969,0.2957,0.283,0.2747,0.3094,0.3092,0.3091,0.309,0,0.1835,0.1827,0.1849,0.1861,0.1865,0.1894,0.1934,0.1979,0.2063,0.2161,0.2206,0.2359,0.2538,0.2685,0.2913,0.2968,0.3031,0.3164,0.3049,0.3055,0.2918,0.2839,0.2759,0.2728,0.3264,0.3265,0.3265,0,0.1861,0.1869,0.1864,0.186,0.1863,0.1891,0.1909,0.197,0.201,0.2162,0.2208,0.2392,0.2517,0.2803,0.2971,0.3168,0.3033,0.3177,0.3129,0.2912,0.2844,0.2694,0.2664,0.3111,0.311,0.3109,0.3108,0,0.1896,0.1885,0.1879,0.1865,0.1867,0.1879,0.1903,0.1925,0.201,0.2082,0.2195,0.2307,0.2584,0.2747,0.2978,0.31,0.2978,0.3164,0.2987,0.2758,0.2548,0.2527,0.2981,0.31,0.3101,0.3101,0.3102,0.3102,0.1901,0.1893,0.1861,0.1855,0.1853,0.1854,0.1852,0.1885,0.1933,0.2021,0.2139,0.2266,0.2483,0.2816,0.2916,0.2948,0.2948,0.2881,0.2823,0.2704,0.2597,0.3013,0.3116,0.3116,0.3117,0.3118,0.3118,0,0.1871,0.1853,0.1848,0.1818,0.1803,0.1818,0.183,0.1822,0.185,0.1953,0.2037,0.2188,0.2349,0.2523,0.2652,0.2585,0.255,0.2491,0.2254,0.2267,0.2692,0.2603,0.2537,0.2538,0.2538,0.2538,0.2538,0.2538,0.1845,0.1809,0.1802,0.1761,0.1748,0.1717,0.1714,0.172,0.1766,0.1814,0.1865,0.195,0.2037,0.2074,0.2063,0.2102,0.1947,0.1869,0.1857,0.2099,0.2129,0.2157,0.205,0.187,0.1869,0.1389,0.1384,0.1381]},{"header":{"parameterUnit":"m.s-1","parameterCategory":2,"la1":30.2991,"la2":30.254,"lo1":-89.0895,"lo2":-89.0444,"dy":0.0017,"dx":0.0017,"nx":28,"ny":28,"refTime":"2023-07-23T21:00:00:Z","depth":"0","parameterNumber":3,"parameterNumberName":"V-component_of_CURRENTS"},"data":[0,0,0,0,0,0,0,0,0,0,0,0,0,0,0,0,0,0,0,0,0,0,0,0,0,0,0,0,0,0,0,0,0,0,0,0,0,0,0,0,0,0,0,0,0,0,0,0,0,0,0,0,0,0,0,0,0,0,0.1116,0.1117,0,0.1139,0.1139,0.1139,0.1123,0.1123,0.1122,0.1121,0.102,0.1018,0.1016,0,0,0,0,0,0,0,0,0,0,0,0,0,0.1043,0.1045,0.1116,0.1117,0.1117,0.1139,0.1139,0.1139,0.1123,0.1123,0.1122,0.1121,0.1021,0.1018,0.1016,0,0,0,0,0,0,0,0,0,0,0,0,0,0.1071,0.1045,0.1116,0.1112,0.1112,0.1138,0.1139,0.1139,0.1124,0.1123,0.1122,0.1121,0.1022,0.1019,0.1015,0.1016,0,0,0.1006,0.1005,0,0,0,0,0,0,0,0,0.1069,0.1073,0.1112,0.1112,0.1112,0.1127,0.1076,0.1092,0.1124,0.1119,0.1121,0.112,0.1045,0.104,0.1048,0.1011,0.1007,0.1006,0.1004,0.1002,0.1002,0,0,0,0,0,0,0,0.1067,0.1072,0.1125,0.1113,0.1113,0.1103,0.1106,0.1079,0.1085,0.1119,0.1118,0.1122,0.1044,0.1051,0.1045,0.1006,0.1006,0.1003,0.1001,0.1,0.0953,0.0954,0,0,0,0,0,0,0.1068,0.1071,0.1124,0.1125,0.1088,0.1105,0.1109,0.1123,0.1088,0.1083,0.1122,0.1121,0.1057,0.1049,0.1041,0.1059,0.1002,0.1,0.0998,0.0952,0.0953,0.0954,0,0,0,0,0,0,0.1067,0.1073,0.1123,0.1098,0.1104,0.1108,0.1124,0.1124,0.1132,0.1092,0.1084,0.113,0.1056,0.1046,0.1033,0.1053,0.0998,0.0995,0.0952,0.0953,0.0953,0.108,0,0,0,0,0,0,0.1065,0.1073,0.108,0.1099,0.1105,0.1153,0.1125,0.1125,0.1136,0.1134,0.1095,0.1085,0.1054,0.1038,0.103,0.1048,0.0993,0.0951,0.0952,0.0953,0.1075,0.1085,0.1094,0,0,0,0,0,0.1062,0.108,0.108,0.1086,0.1116,0.1154,0.1158,0.1155,0.1137,0.1155,0.1128,0.1087,0.1039,0.1037,0.1027,0.1044,0.095,0.0952,0.0953,0.1071,0.1083,0.1094,0,0,0,0,0,0,0.105,0.1081,0.1081,0.1107,0.1134,0.1152,0.1164,0.1162,0.1158,0.1149,0.1103,0.1093,0.1088,0.1046,0.1045,0.1031,0.0984,0.0983,0.1077,0.1088,0.1097,0.1102,0.099,0,0,0,0,0,0.1052,0.1075,0.1104,0.1125,0.114,0.1153,0.1164,0.1169,0.117,0.1168,0.1149,0.1114,0.1087,0.1072,0.1047,0.1043,0.1,0.1042,0.1052,0.106,0.1056,0.1021,0.1027,0.0958,0.0958,0.0958,0,0,0.105,0.1072,0.1082,0.1124,0.1141,0.1175,0.1157,0.1187,0.121,0.1154,0.1177,0.115,0.1094,0.1098,0.1089,0.1064,0.1061,0.1062,0.107,0.1061,0.1023,0.103,0.1036,0.0959,0.0959,0.0959,0,0,0.107,0.1085,0.1114,0.1142,0.1178,0.1193,0.1204,0.1237,0.1246,0.1265,0.1229,0.1224,0.1185,0.1168,0.1143,0.1184,0.1115,0.1163,0.1215,0.1182,0.1188,0.1192,0.1167,0.1167,0.1166,0.1166,0.1166,0,0.106,0.1108,0.1128,0.1167,0.119,0.1203,0.1242,0.126,0.1286,0.1294,0.1282,0.1247,0.1219,0.1205,0.123,0.1208,0.1171,0.1184,0.1196,0.1199,0.1202,0.1174,0.1174,0.1172,0.1171,0.1171,0.117,0,0.1109,0.1144,0.1167,0.1219,0.1249,0.1287,0.1318,0.1348,0.1355,0.1365,0.1369,0.1344,0.1317,0.1314,0.1286,0.1288,0.1253,0.1219,0.1175,0.1217,0.1185,0.1182,0.1181,0.1179,0.1177,0.1175,0,0,0.1083,0.1181,0.1186,0.122,0.128,0.1309,0.1356,0.1399,0.142,0.1436,0.1455,0.1438,0.1423,0.1393,0.1362,0.1345,0.1356,0.1296,0.1292,0.1283,0.1282,0.1247,0.1239,0.132,0.1319,0.1319,0.1262,0,0.1111,0.1195,0.1234,0.1302,0.1347,0.1378,0.1418,0.1453,0.1476,0.1504,0.1479,0.1481,0.1449,0.1444,0.1424,0.137,0.135,0.1375,0.123,0.1226,0.1199,0.1235,0.1277,0.1227,0.1258,0.1258,0.1257,0,0.1141,0.1195,0.1274,0.1351,0.1371,0.1405,0.1465,0.1505,0.154,0.1554,0.1553,0.1537,0.1528,0.149,0.1414,0.1426,0.1365,0.132,0.1315,0.1231,0.1184,0.1183,0.122,0.1152,0.1252,0.1252,0.1253,0,0.1123,0.1215,0.1279,0.1307,0.1396,0.1424,0.1463,0.1513,0.1546,0.1586,0.1608,0.1581,0.1569,0.1494,0.1419,0.1412,0.1324,0.1297,0.1203,0.1199,0.1179,0.1174,0.114,0.1232,0.1232,0.1232,0.1233,0,0.1141,0.1188,0.1272,0.1307,0.1362,0.142,0.1472,0.1513,0.1564,0.1606,0.1624,0.1642,0.1568,0.1518,0.1434,0.1314,0.1329,0.1215,0.1182,0.1225,0.1225,0.1116,0.1054,0.123,0.1231,0.1231,0.1232,0,0.1126,0.1188,0.1256,0.134,0.1362,0.1397,0.1474,0.1512,0.1568,0.1625,0.1642,0.1675,0.163,0.1545,0.1431,0.1331,0.1183,0.1172,0.1235,0.1209,0.1052,0.0996,0.0891,0.0876,0.1062,0.1061,0.106,0,0.114,0.1174,0.126,0.1291,0.1329,0.1386,0.1427,0.1499,0.1548,0.1644,0.1671,0.1672,0.1685,0.1521,0.1373,0.122,0.1146,0.1121,0.1113,0.1053,0.0965,0.0945,0.0939,0.1146,0.1146,0.1146,0.1145,0,0.1145,0.1167,0.1217,0.1276,0.1321,0.1383,0.145,0.1486,0.1581,0.164,0.171,0.1736,0.1644,0.1537,0.1345,0.1236,0.1089,0.1109,0.1035,0.1015,0.1003,0.097,0.1177,0.1144,0.1144,0.1144,0.1144,0.1144,0.113,0.1151,0.1203,0.1258,0.1314,0.1377,0.1414,0.1491,0.1566,0.1669,0.1715,0.177,0.1669,0.144,0.1296,0.1059,0.1046,0.0985,0.0919,0.0904,0.0894,0.1094,0.1024,0.1024,0.1023,0.1023,0.1023,0,0.1106,0.1132,0.1183,0.1249,0.1299,0.134,0.143,0.1469,0.1544,0.1663,0.1735,0.1736,0.1577,0.14,0.1085,0.0901,0.0888,0.0816,0.0818,0.0819,0.0994,0.1005,0.0943,0.0943,0.0944,0.0944,0.0944,0.0944,0.1091,0.1116,0.1147,0.1216,0.1262,0.1314,0.1358,0.1429,0.1521,0.1635,0.1701,0.178,0.1637,0.1111,0.0782,0.0728,0.0637,0.0622,0.0551,0.0685,0.0698,0.0709,0.0708,0.0585,0.0585,0.0464,0.0462,0.0461]}],[{"header":{"parameterUnit":"m.s-1","parameterCategory":2,"la1":30.2991,"la2":30.254,"lo1":-89.0895,"lo2":-89.0444,"dy":0.0017,"dx":0.0017,"nx":28,"ny":28,"refTime":"2023-07-23T21:00:00:Z","depth":"2","parameterNumber":2,"parameterNumberName":"U-component_of_CURRENTS"},"data":[0,0,0,0,0,0,0,0,0,0,0,0,0,0,0,0,0,0,0,0,0,0,0,0,0,0,0,0,0,0,0,0,0,0,0,0,0,0,0,0,0,0,0,0,0,0,0,0,0,0,0,0,0,0,0,0,0,0,0.0761,0.0761,0,0.0781,0.0782,0.0782,0.083,0.0831,0.0832,0.0833,0.0869,0.0869,0.0869,0,0,0,0,0,0,0,0,0,0,0,0,0,0.077,0.077,0.0761,0.0761,0.0762,0.0781,0.0782,0.0782,0.083,0.0831,0.0832,0.0833,0.0869,0.0869,0.0869,0,0,0,0,0,0,0,0,0,0,0,0,0,0.0775,0.0769,0.0761,0.0788,0.0791,0.0781,0.0782,0.0782,0.0829,0.0831,0.0832,0.0834,0.0869,0.0869,0.0869,0.0839,0,0,0.087,0.087,0,0,0,0,0,0,0,0,0.0775,0.0775,0.0784,0.0786,0.0789,0.0805,0.0798,0.0802,0.0829,0.0814,0.0833,0.0835,0.0848,0.085,0.085,0.084,0.0842,0.087,0.087,0.087,0.087,0,0,0,0,0,0,0,0.0775,0.0774,0.0769,0.0784,0.0787,0.0801,0.0804,0.0799,0.0822,0.0816,0.0819,0.0822,0.085,0.085,0.0851,0.0842,0.087,0.087,0.087,0.087,0.0867,0.0867,0,0,0,0,0,0,0.0771,0.0774,0.0768,0.0769,0.0786,0.08,0.0803,0.0798,0.0822,0.0827,0.082,0.0824,0.0849,0.0851,0.0853,0.0887,0.087,0.087,0.087,0.0867,0.0867,0.0867,0,0,0,0,0,0,0.0771,0.0769,0.0767,0.0773,0.0774,0.0798,0.0793,0.0798,0.0816,0.0826,0.0831,0.0836,0.085,0.0853,0.0861,0.0886,0.087,0.087,0.0868,0.0867,0.0867,0.0911,0,0,0,0,0,0,0.0771,0.0769,0.0769,0.0772,0.0773,0.0772,0.0791,0.0797,0.0814,0.0819,0.084,0.0845,0.0852,0.0861,0.0861,0.0886,0.087,0.0868,0.0867,0.0867,0.091,0.0913,0.0915,0,0,0,0,0,0.0771,0.076,0.0768,0.0768,0.077,0.0771,0.0773,0.0796,0.0814,0.0819,0.0834,0.0845,0.0861,0.0861,0.0861,0.0887,0.0868,0.0868,0.0867,0.0909,0.0912,0.0915,0,0,0,0,0,0,0.0764,0.0764,0.0773,0.0764,0.0773,0.078,0.0785,0.08,0.0815,0.0826,0.0838,0.0843,0.0857,0.0856,0.0856,0.0882,0.0868,0.0868,0.0899,0.0902,0.0905,0.0914,0.087,0,0,0,0,0,0.0761,0.0754,0.076,0.0755,0.0759,0.0775,0.078,0.0796,0.0807,0.0816,0.0833,0.0845,0.0851,0.0866,0.0863,0.0877,0.089,0.0893,0.0895,0.0898,0.0903,0.0933,0.094,0.0867,0.0867,0.0867,0,0,0.0757,0.0756,0.0754,0.0754,0.0763,0.077,0.0783,0.0793,0.0809,0.0815,0.0843,0.0848,0.0851,0.0869,0.0877,0.0879,0.0928,0.0898,0.09,0.0904,0.0934,0.0941,0.0948,0.0867,0.0867,0.0867,0,0,0.0747,0.0747,0.0743,0.0751,0.0764,0.0772,0.0778,0.0795,0.0814,0.083,0.0842,0.086,0.0872,0.0887,0.0893,0.0902,0.093,0.0909,0.0947,0.0976,0.0983,0.0989,0.1031,0.1041,0.0924,0.0924,0.0924,0,0.0748,0.0743,0.0743,0.0748,0.076,0.0775,0.0785,0.0797,0.0819,0.084,0.0846,0.0879,0.088,0.0911,0.0922,0.0911,0.094,0.094,0.0982,0.0988,0.0994,0.1035,0.1045,0.0926,0.0926,0.0926,0.0926,0,0.0739,0.0743,0.0742,0.0754,0.0764,0.0773,0.0793,0.0814,0.084,0.086,0.0898,0.0903,0.0935,0.0936,0.0936,0.0981,0.0993,0.0974,0.0981,0.1005,0.1046,0.1056,0.0929,0.0928,0.0928,0.0927,0,0,0.0726,0.0734,0.0738,0.0752,0.0773,0.0781,0.0808,0.084,0.0876,0.0899,0.0952,0.0959,0.0984,0.0991,0.1,0.1027,0.1091,0.1031,0.1031,0.1085,0.1182,0.113,0.1136,0.1094,0.1095,0.1097,0.1202,0,0.0728,0.0732,0.074,0.0763,0.0773,0.0802,0.0828,0.0863,0.09,0.0952,0.0974,0.1017,0.1,0.1036,0.1058,0.1083,0.1117,0.1066,0.114,0.1142,0.1103,0.1144,0.0894,0.0961,0.1212,0.1213,0.1214,0,0.0727,0.073,0.0744,0.0781,0.079,0.081,0.0873,0.0901,0.0967,0.1003,0.1056,0.1083,0.1138,0.1112,0.1181,0.1158,0.1177,0.1186,0.119,0.1131,0.1107,0.0973,0.0969,0.123,0.1229,0.1228,0.1227,0,0.0723,0.0742,0.0753,0.0763,0.0799,0.0828,0.086,0.0923,0.0964,0.1051,0.1103,0.116,0.1215,0.1238,0.1268,0.1242,0.134,0.1301,0.127,0.1267,0.106,0.1036,0.1343,0.1343,0.1342,0.1342,0.1342,0,0.0724,0.0739,0.0755,0.0764,0.08,0.0834,0.0894,0.0939,0.1017,0.1077,0.1138,0.1199,0.1251,0.1312,0.1312,0.1336,0.1382,0.1289,0.1291,0.1069,0.1045,0.1273,0.1264,0.1346,0.1345,0.1344,0.1344,0,0.0725,0.0729,0.0747,0.0781,0.0798,0.083,0.0906,0.0952,0.1032,0.1118,0.1155,0.1259,0.1346,0.1388,0.1447,0.14,0.1416,0.1408,0.1154,0.1123,0.1314,0.1305,0.1385,0.1384,0.1383,0.1382,0.1381,0,0.0728,0.0732,0.0755,0.0768,0.0787,0.0838,0.0877,0.0954,0.1006,0.1143,0.1184,0.1309,0.1352,0.143,0.1358,0.1355,0.1449,0.1161,0.1041,0.1324,0.1319,0.1312,0.1304,0.0795,0.079,0.0785,0.0782,0,0.0738,0.074,0.0749,0.077,0.0803,0.0838,0.0902,0.0936,0.1036,0.1104,0.1198,0.1239,0.1277,0.1164,0.117,0.1117,0.1135,0.1073,0.144,0.0822,0.0776,0.0769,0.0779,0.0743,0.0747,0.075,0.0752,0.0753,0.075,0.0754,0.076,0.0779,0.0805,0.0832,0.0846,0.0913,0.0973,0.1034,0.1119,0.1092,0.0958,0.0833,0.083,0.084,0.0904,0.0819,0.0829,0.0844,0.0756,0.071,0.065,0.0653,0.0656,0.0659,0.0661,0,0.0767,0.0763,0.0774,0.0782,0.0783,0.0813,0.0853,0.0839,0.0874,0.0914,0.095,0.0675,0.055,0.0556,0.0463,0.0438,0.0392,0.0461,0.0374,0.0406,0.0437,0.0328,0.011,0.011,0.0111,0.0111,0,0,0.0775,0.0773,0.0765,0.0752,0.0756,0.0746,0.0749,0.0724,0.072,0.0677,0.0612,0.05,0.0434,0.0238,0.018,0.02,0.033,0.0168,0.0571,0.0496,0.053,0.056,0.0418,0,0,0,0,0]},{"header":{"parameterUnit":"m.s-1","parameterCategory":2,"la1":30.2991,"la2":30.254,"lo1":-89.0895,"lo2":-89.0444,"dy":0.0017,"dx":0.0017,"nx":28,"ny":28,"refTime":"2023-07-23T21:00:00:Z","depth":"2","parameterNumber":3,"parameterNumberName":"V-component_of_CURRENTS"},"data":[0,0,0,0,0,0,0,0,0,0,0,0,0,0,0,0,0,0,0,0,0,0,0,0,0,0,0,0,0,0,0,0,0,0,0,0,0,0,0,0,0,0,0,0,0,0,0,0,0,0,0,0,0,0,0,0,0,0,-0.0323,-0.0323,0,-0.0378,-0.0379,-0.038,-0.0417,-0.0417,-0.0417,-0.0417,-0.0566,-0.057,-0.0574,0,0,0,0,0,0,0,0,0,0,0,0,0,-0.0318,-0.0318,-0.0323,-0.0323,-0.0324,-0.0378,-0.0379,-0.038,-0.0417,-0.0417,-0.0417,-0.0417,-0.0564,-0.0569,-0.0574,0,0,0,0,0,0,0,0,0,0,0,0,0,-0.0345,-0.0318,-0.0323,-0.0346,-0.0348,-0.0378,-0.0379,-0.0381,-0.0417,-0.0417,-0.0417,-0.0417,-0.0563,-0.0569,-0.0575,-0.0616,0,0,-0.0594,-0.0596,0,0,0,0,0,0,0,0,-0.0344,-0.0346,-0.0342,-0.0344,-0.0347,-0.0387,-0.0432,-0.0463,-0.0417,-0.0395,-0.0417,-0.0416,-0.0512,-0.0522,-0.0538,-0.0623,-0.063,-0.0594,-0.0598,-0.06,-0.0602,0,0,0,0,0,0,0,-0.0342,-0.0344,-0.0349,-0.0342,-0.0345,-0.0376,-0.038,-0.0438,-0.0459,-0.0397,-0.0399,-0.0399,-0.0515,-0.0532,-0.0542,-0.0632,-0.0594,-0.0599,-0.0603,-0.0606,-0.077,-0.0771,0,0,0,0,0,0,-0.0323,-0.0342,-0.0347,-0.035,-0.034,-0.0376,-0.038,-0.0378,-0.0456,-0.0466,-0.0399,-0.04,-0.0521,-0.0534,-0.0547,-0.0591,-0.06,-0.0606,-0.061,-0.077,-0.077,-0.0771,0,0,0,0,0,0,-0.0323,-0.0323,-0.0345,-0.0344,-0.0349,-0.0375,-0.0373,-0.0379,-0.0389,-0.0456,-0.0468,-0.0402,-0.0522,-0.0539,-0.0599,-0.0597,-0.0609,-0.0614,-0.0769,-0.077,-0.0771,-0.0685,0,0,0,0,0,0,-0.0323,-0.0323,-0.0319,-0.0343,-0.0348,-0.0352,-0.0373,-0.038,-0.0388,-0.039,-0.0463,-0.0477,-0.0523,-0.059,-0.0605,-0.0606,-0.0619,-0.0768,-0.0769,-0.077,-0.0687,-0.0683,-0.068,0,0,0,0,0,-0.0322,-0.031,-0.0318,-0.0319,-0.034,-0.0351,-0.0357,-0.0379,-0.0388,-0.0389,-0.0445,-0.0474,-0.0609,-0.0595,-0.0614,-0.0616,-0.0767,-0.0769,-0.077,-0.0689,-0.0684,-0.068,0,0,0,0,0,0,-0.0308,-0.0313,-0.0322,-0.0313,-0.0327,-0.0356,-0.0357,-0.0373,-0.0416,-0.042,-0.0487,-0.0505,-0.0557,-0.0604,-0.0587,-0.067,-0.0692,-0.0698,-0.0624,-0.062,-0.0617,-0.0562,-0.0624,0,0,0,0,0,-0.0301,-0.0294,-0.0308,-0.0302,-0.0304,-0.0331,-0.0339,-0.035,-0.0387,-0.0405,-0.0455,-0.0518,-0.0579,-0.0611,-0.067,-0.0717,-0.0733,-0.0732,-0.0728,-0.0724,-0.0694,-0.0733,-0.0729,-0.0776,-0.0776,-0.0776,0,0,-0.0294,-0.0296,-0.0293,-0.0299,-0.0312,-0.0308,-0.0336,-0.0337,-0.0341,-0.0418,-0.0444,-0.0506,-0.059,-0.0639,-0.0667,-0.0677,-0.0719,-0.0727,-0.0722,-0.0694,-0.0734,-0.0729,-0.0725,-0.0777,-0.0777,-0.0777,0,0,-0.027,-0.0277,-0.026,-0.0265,-0.0271,-0.0288,-0.0283,-0.0306,-0.0322,-0.0357,-0.0416,-0.0467,-0.0559,-0.0609,-0.0651,-0.0664,-0.0698,-0.0695,-0.0632,-0.0671,-0.0666,-0.0662,-0.066,-0.0657,-0.0693,-0.0693,-0.0693,0,-0.0263,-0.0242,-0.0259,-0.0244,-0.0242,-0.0272,-0.0256,-0.0278,-0.032,-0.0332,-0.0353,-0.047,-0.0538,-0.0597,-0.06,-0.0651,-0.0667,-0.0638,-0.0661,-0.0658,-0.0655,-0.0655,-0.0652,-0.0689,-0.069,-0.069,-0.069,0,-0.0225,-0.021,-0.02,-0.0191,-0.0195,-0.0185,-0.0208,-0.0218,-0.0241,-0.0266,-0.0316,-0.0401,-0.0464,-0.0504,-0.0556,-0.0581,-0.0595,-0.0648,-0.066,-0.0644,-0.0646,-0.0645,-0.0684,-0.0685,-0.0686,-0.0687,0,0,-0.0203,-0.0177,-0.0173,-0.0156,-0.0163,-0.0159,-0.0162,-0.0173,-0.0167,-0.0217,-0.0218,-0.032,-0.0351,-0.0399,-0.0474,-0.0506,-0.0504,-0.0557,-0.0561,-0.053,-0.0557,-0.0509,-0.0503,-0.0565,-0.0565,-0.0565,-0.0559,0,-0.0169,-0.0123,-0.0124,-0.0089,-0.0068,-0.009,-0.0089,-0.0105,-0.013,-0.0141,-0.0215,-0.0252,-0.032,-0.0346,-0.0386,-0.0484,-0.0499,-0.0498,-0.0597,-0.0598,-0.0538,-0.05,-0.0477,-0.0465,-0.0557,-0.0557,-0.0557,0,-0.0133,-0.0104,-0.0058,-0.0027,-0.002,-0.0006,0.0002,0.0001,-0.0028,-0.0046,-0.0082,-0.0142,-0.0195,-0.0255,-0.0363,-0.0361,-0.0433,-0.0499,-0.0503,-0.048,-0.0548,-0.0502,-0.0459,-0.0555,-0.0555,-0.0555,-0.0556,0,-0.0107,-0.006,-0.0018,-0.0009,0.0017,0.0035,0.0047,0.0033,0.0043,0.0024,0.0033,-0.0048,-0.0077,-0.0182,-0.0307,-0.0339,-0.0411,-0.0486,-0.05,-0.0497,-0.0503,-0.05,-0.0536,-0.0536,-0.0536,-0.0536,-0.0536,0,-0.0072,-0.0039,0.0004,0.0026,0.0079,0.0082,0.0127,0.0125,0.0134,0.0159,0.0093,0.0095,-0.006,-0.0129,-0.0257,-0.0348,-0.0374,-0.0452,-0.0486,-0.0472,-0.0467,-0.0577,-0.0582,-0.0536,-0.0536,-0.0536,-0.0536,0,-0.0054,-0.0028,0.0025,0.0074,0.0093,0.0132,0.0187,0.0218,0.0227,0.0263,0.0265,0.021,0.0129,-0.0012,-0.0173,-0.0262,-0.0378,-0.0407,-0.0349,-0.0375,-0.0446,-0.0448,-0.0411,-0.041,-0.0408,-0.0407,-0.0406,0,-0.004,-0.0009,0.006,0.0099,0.0127,0.0187,0.0228,0.0257,0.0293,0.0329,0.035,0.0306,0.0261,0.0085,-0.005,-0.0206,-0.0316,-0.0307,-0.0363,-0.0393,-0.0431,-0.0435,-0.0438,-0.0342,-0.034,-0.0339,-0.0338,0,-0.001,0.0013,0.0057,0.0138,0.0196,0.0261,0.0327,0.0368,0.0408,0.0442,0.0471,0.0445,0.034,0.0185,0.0011,-0.0097,-0.0279,-0.0283,-0.0344,-0.0366,-0.0324,-0.0363,-0.0369,-0.0326,-0.0328,-0.0328,-0.0329,-0.0329,0.0009,0.0049,0.0111,0.0185,0.025,0.033,0.0382,0.0452,0.0517,0.0576,0.0546,0.0473,0.0288,0.0063,-0.0024,-0.0096,-0.013,-0.0263,-0.0269,-0.0276,-0.0259,-0.0216,-0.0192,-0.0192,-0.0192,-0.0193,-0.0193,0,0.0044,0.0093,0.016,0.0248,0.0312,0.0347,0.0442,0.0488,0.0568,0.0604,0.062,0.0341,0.021,0.0035,-0.0021,-0.0087,-0.0093,-0.0159,-0.0199,-0.0209,-0.0219,-0.0201,-0.0117,-0.0117,-0.0117,-0.0117,0,0,0.0073,0.0139,0.0176,0.0285,0.0343,0.0426,0.0478,0.0551,0.0581,0.0571,0.049,0.0397,0.0153,0.0046,-0.0027,-0.0045,-0.0091,-0.0036,-0.0089,-0.013,-0.0138,-0.0274,-0.0255,0,0,0,0,0]}],[{"header":{"parameterUnit":"m.s-1","parameterCategory":2,"la1":30.2991,"la2":30.254,"lo1":-89.0895,"lo2":-89.0444,"dy":0.0017,"dx":0.0017,"nx":28,"ny":28,"refTime":"2023-07-23T21:00:00:Z","depth":"4","parameterNumber":2,"parameterNumberName":"U-component_of_CURRENTS"},"data":[0,0,0,0,0,0,0,0,0,0,0,0,0,0,0,0,0,0,0,0,0,0,0,0,0,0,0,0,0,0,0,0,0,0,0,0,0,0,0,0,0,0,0,0,0,0,0,0,0,0,0,0,0,0,0,0,0,0,-0.0252,-0.0252,0,-0.0275,-0.0276,-0.0276,-0.0273,-0.0272,-0.0271,-0.0271,-0.0306,-0.0308,-0.0309,0,0,0,0,0,0,0,0,0,0,0,0,0,-0.0272,-0.0272,-0.0252,-0.0252,-0.0252,-0.0275,-0.0276,-0.0276,-0.0273,-0.0272,-0.0271,-0.0271,-0.0306,-0.0308,-0.031,0,0,0,0,0,0,0,0,0,0,0,0,0,-0.0278,-0.0271,-0.0252,-0.0252,-0.0252,-0.0275,-0.0276,-0.0276,-0.0273,-0.0272,-0.0271,-0.027,-0.0305,-0.0308,-0.031,-0.0341,0,0,-0.0317,-0.0318,0,0,0,0,0,0,0,0,-0.0278,-0.0277,-0.0252,-0.0252,-0.0252,-0.0268,-0.0296,-0.0298,-0.0273,-0.0267,-0.0271,-0.027,-0.0294,-0.0297,-0.0306,-0.0342,-0.0344,-0.0317,-0.0318,-0.0319,-0.032,0,0,0,0,0,0,0,-0.0277,-0.0277,-0.0263,-0.0252,-0.0252,-0.0274,-0.0273,-0.0297,-0.0287,-0.0267,-0.0267,-0.0266,-0.0295,-0.0304,-0.0307,-0.0345,-0.0317,-0.0319,-0.032,-0.0321,-0.0384,-0.0384,0,0,0,0,0,0,-0.0268,-0.0276,-0.0262,-0.0264,-0.0261,-0.0273,-0.0273,-0.0266,-0.0286,-0.0288,-0.0267,-0.0266,-0.0301,-0.0304,-0.0308,-0.032,-0.0319,-0.0321,-0.0322,-0.0384,-0.0384,-0.0384,0,0,0,0,0,0,-0.0268,-0.0266,-0.0261,-0.0269,-0.027,-0.0273,-0.0266,-0.0266,-0.0262,-0.0286,-0.0288,-0.0259,-0.03,-0.0305,-0.0325,-0.0322,-0.0322,-0.0324,-0.0383,-0.0384,-0.0384,-0.0359,0,0,0,0,0,0,-0.0268,-0.0266,-0.0253,-0.0268,-0.0269,-0.0268,-0.0266,-0.0267,-0.0263,-0.0261,-0.028,-0.0283,-0.03,-0.0321,-0.0327,-0.0325,-0.0326,-0.0383,-0.0383,-0.0384,-0.036,-0.0359,-0.0358,0,0,0,0,0,-0.0269,-0.0256,-0.0252,-0.025,-0.0253,-0.0268,-0.0271,-0.0272,-0.0263,-0.0264,-0.0278,-0.0282,-0.0329,-0.0324,-0.033,-0.0328,-0.0382,-0.0383,-0.0384,-0.036,-0.0359,-0.0358,0,0,0,0,0,0,-0.026,-0.0255,-0.0251,-0.0237,-0.0248,-0.0266,-0.0261,-0.0265,-0.0277,-0.0269,-0.0291,-0.0296,-0.0312,-0.0327,-0.032,-0.0349,-0.0355,-0.0357,-0.0334,-0.0334,-0.0333,-0.0322,-0.0328,0,0,0,0,0,-0.0251,-0.0236,-0.0246,-0.0234,-0.0235,-0.0246,-0.0248,-0.0251,-0.0265,-0.0268,-0.0282,-0.0299,-0.0324,-0.0332,-0.0355,-0.0373,-0.0382,-0.0375,-0.0374,-0.0374,-0.037,-0.0392,-0.0392,-0.0387,-0.0387,-0.0387,0,0,-0.0244,-0.0239,-0.023,-0.0231,-0.0234,-0.0242,-0.0245,-0.0244,-0.0254,-0.0272,-0.0281,-0.0298,-0.0329,-0.0349,-0.0357,-0.0358,-0.0379,-0.0375,-0.0374,-0.037,-0.0393,-0.0393,-0.0393,-0.0387,-0.0387,-0.0387,0,0,-0.0228,-0.0216,-0.0201,-0.021,-0.0211,-0.0226,-0.0222,-0.0235,-0.024,-0.0257,-0.0273,-0.0289,-0.032,-0.0344,-0.0361,-0.0372,-0.0376,-0.0372,-0.0357,-0.0378,-0.0379,-0.0379,-0.0382,-0.0383,-0.0369,-0.0369,-0.0369,0,-0.0216,-0.0202,-0.0203,-0.02,-0.0205,-0.0217,-0.0218,-0.0233,-0.0252,-0.0261,-0.0254,-0.0302,-0.0321,-0.0357,-0.0354,-0.037,-0.0372,-0.0356,-0.0376,-0.0377,-0.0378,-0.0381,-0.0382,-0.0368,-0.0368,-0.0368,-0.0368,0,-0.0201,-0.0189,-0.0183,-0.0182,-0.0194,-0.0193,-0.0217,-0.0226,-0.023,-0.0247,-0.027,-0.0298,-0.0321,-0.0332,-0.0344,-0.0362,-0.0358,-0.0373,-0.0375,-0.0377,-0.038,-0.0381,-0.0366,-0.0367,-0.0367,-0.0367,0,0,-0.0172,-0.017,-0.0165,-0.0166,-0.0182,-0.0192,-0.021,-0.0234,-0.0245,-0.0259,-0.0276,-0.0309,-0.0306,-0.0325,-0.0342,-0.0358,-0.036,-0.0356,-0.0358,-0.0352,-0.0386,-0.0371,-0.0372,-0.0373,-0.0373,-0.0374,-0.0382,0,-0.0156,-0.0142,-0.0152,-0.0155,-0.0156,-0.0181,-0.0201,-0.0226,-0.0247,-0.0268,-0.0294,-0.0309,-0.031,-0.0308,-0.0327,-0.036,-0.0365,-0.0355,-0.0392,-0.0393,-0.0374,-0.0374,-0.0375,-0.0383,-0.0384,-0.0384,-0.0384,0,-0.0138,-0.0132,-0.012,-0.0142,-0.0144,-0.0148,-0.0181,-0.0202,-0.0242,-0.0254,-0.0272,-0.029,-0.0312,-0.031,-0.0352,-0.0341,-0.035,-0.0373,-0.0375,-0.037,-0.0381,-0.0385,-0.0388,-0.0387,-0.0387,-0.0387,-0.0387,0,-0.0116,-0.0116,-0.0102,-0.0107,-0.0131,-0.0129,-0.0143,-0.0183,-0.0206,-0.0229,-0.0244,-0.0276,-0.0286,-0.0312,-0.0351,-0.0341,-0.0405,-0.0403,-0.0398,-0.0397,-0.0419,-0.0418,-0.0422,-0.0422,-0.0422,-0.0422,-0.0422,0,-0.0101,-0.0093,-0.0081,-0.0074,-0.007,-0.0095,-0.0103,-0.0124,-0.0162,-0.0203,-0.0215,-0.0265,-0.0284,-0.0331,-0.0354,-0.0386,-0.0404,-0.0391,-0.0401,-0.0407,-0.0405,-0.0419,-0.0419,-0.0422,-0.0422,-0.0422,-0.0422,0,-0.0082,-0.0072,-0.0057,-0.0055,-0.0053,-0.0044,-0.0068,-0.0094,-0.0114,-0.0168,-0.0169,-0.0242,-0.0294,-0.0327,-0.0384,-0.0386,-0.0424,-0.043,-0.0428,-0.0438,-0.0392,-0.0391,-0.0403,-0.0403,-0.0402,-0.0402,-0.0402,0,-0.0074,-0.0055,-0.0028,-0.002,-0.001,-0.0005,-0.0022,-0.0053,-0.01,-0.0185,-0.023,-0.0272,-0.0321,-0.0374,-0.0418,-0.0434,-0.0437,-0.0431,-0.0404,-0.0383,-0.0392,-0.039,-0.0389,-0.0401,-0.0401,-0.0401,-0.0401,0,-0.0063,-0.0035,-0.0024,0.0004,0.0009,-0.0014,-0.0041,-0.0058,-0.0131,-0.0158,-0.025,-0.0279,-0.0343,-0.0381,-0.0382,-0.0414,-0.0421,-0.0427,-0.0427,-0.0401,-0.0381,-0.0389,-0.0389,-0.04,-0.04,-0.04,-0.04,0,-0.0051,-0.0037,-0.0009,0.0008,0.0013,-0.0018,-0.0031,-0.0092,-0.0127,-0.021,-0.0261,-0.0319,-0.0362,-0.0377,-0.0417,-0.0403,-0.0387,-0.0361,-0.0364,-0.0365,-0.0352,-0.0322,-0.0327,0,0,0,0,0,-0.0046,-0.0038,-0.0022,-0.0011,-0.0005,-0.0015,-0.0062,-0.0093,-0.0153,-0.0199,-0.0215,-0.0276,-0.0309,-0.0364,-0.0338,-0.0409,-0.0391,-0.0381,-0.0362,-0.0393,-0.0394,-0.0384,0,0,0,0,0,0,-0.0051,-0.003,-0.0027,-0.0028,-0.0026,-0.0052,-0.0074,-0.0122,-0.0153,-0.0198,-0.0218,-0.0251,-0.0291,-0.0305,-0.0331,-0.0339,-0.0319,-0.0412,-0.0411,-0.0392,-0.0393,-0.0394,-0.0385,0,0,0,0,0]},{"header":{"parameterUnit":"m.s-1","parameterCategory":2,"la1":30.2991,"la2":30.254,"lo1":-89.0895,"lo2":-89.0444,"dy":0.0017,"dx":0.0017,"nx":28,"ny":28,"refTime":"2023-07-23T21:00:00:Z","depth":"4","parameterNumber":3,"parameterNumberName":"V-component_of_CURRENTS"},"data":[0,0,0,0,0,0,0,0,0,0,0,0,0,0,0,0,0,0,0,0,0,0,0,0,0,0,0,0,0,0,0,0,0,0,0,0,0,0,0,0,0,0,0,0,0,0,0,0,0,0,0,0,0,0,0,0,0,0,0.0175,0.0175,0,0.0147,0.0147,0.0147,0.011,0.0109,0.0108,0.0107,0.0124,0.0125,0.0126,0,0,0,0,0,0,0,0,0,0,0,0,0,0.0267,0.0265,0.0175,0.0175,0.0174,0.0147,0.0147,0.0147,0.011,0.0109,0.0107,0.0106,0.0123,0.0125,0.0127,0,0,0,0,0,0,0,0,0,0,0,0,0,0.0236,0.0265,0.0176,0.0149,0.0146,0.0147,0.0147,0.0147,0.011,0.0109,0.0107,0.0106,0.0123,0.0125,0.0127,0.017,0,0,0.0133,0.0134,0,0,0,0,0,0,0,0,0.0238,0.0233,0.0154,0.0151,0.0147,0.0127,0.0186,0.0156,0.0111,0.0128,0.0107,0.0105,0.0127,0.0129,0.0132,0.0171,0.0172,0.0133,0.0135,0.0136,0.0136,0,0,0,0,0,0,0,0.024,0.0234,0.0169,0.0153,0.0149,0.0162,0.0156,0.018,0.0141,0.0127,0.0123,0.0113,0.0126,0.0131,0.0133,0.0172,0.0133,0.0135,0.0137,0.0137,0.0163,0.0163,0,0,0,0,0,0,0.0232,0.0236,0.0169,0.0167,0.0185,0.0161,0.0154,0.0138,0.0139,0.0136,0.0115,0.0112,0.0128,0.013,0.0133,0.0097,0.0136,0.0138,0.0139,0.0164,0.0163,0.0163,0,0,0,0,0,0,0.0234,0.0227,0.017,0.0198,0.0191,0.016,0.0143,0.0139,0.0109,0.0129,0.0128,0.0085,0.0127,0.013,0.0128,0.01,0.0139,0.014,0.0165,0.0164,0.0163,0.008,0,0,0,0,0,0,0.0237,0.0227,0.0213,0.0197,0.0189,0.0144,0.0144,0.0139,0.0105,0.01,0.0104,0.0106,0.0126,0.0124,0.013,0.0104,0.0142,0.0165,0.0164,0.0163,0.0084,0.0077,0.0071,0,0,0,0,0,0.0241,0.0218,0.0212,0.0204,0.017,0.0142,0.0139,0.0117,0.0105,0.0086,0.0091,0.0104,0.0121,0.0126,0.0132,0.0106,0.0166,0.0164,0.0163,0.0087,0.0078,0.0071,0,0,0,0,0,0,0.0248,0.0212,0.0205,0.0172,0.0148,0.0134,0.0114,0.0101,0.0091,0.0082,0.0102,0.0105,0.0088,0.0116,0.0121,0.0112,0.0144,0.0144,0.0084,0.0076,0.007,0.0061,0.0144,0,0,0,0,0,0.0245,0.0217,0.019,0.0163,0.0148,0.0129,0.0114,0.0095,0.0085,0.0076,0.0075,0.0085,0.0096,0.0098,0.011,0.0115,0.014,0.0102,0.0095,0.0089,0.0088,0.0104,0.0098,0.0158,0.0158,0.0158,0,0,0.0242,0.0217,0.0203,0.0163,0.0145,0.0116,0.0116,0.0078,0.0055,0.0084,0.005,0.0059,0.0091,0.0083,0.008,0.0099,0.0085,0.0088,0.0082,0.0084,0.0102,0.0096,0.0091,0.0157,0.0158,0.0158,0,0,0.0217,0.0197,0.0164,0.014,0.0099,0.0092,0.0072,0.0039,0.0022,0.0001,0.0012,0.0005,0.0018,0.0031,0.0046,0.0017,0.0046,0.0013,-0.0023,-0.0008,-0.0013,-0.0017,0.0002,0.0,0.0015,0.0015,0.0015,0,0.0214,0.0167,0.0151,0.0111,0.0088,0.0074,0.0035,0.0025,-0.0007,-0.0015,-0.0024,-0.002,-0.0003,0.0002,-0.0017,0.0,0.0014,0.0001,-0.0017,-0.0021,-0.0023,-0.0003,-0.0004,0.0011,0.0011,0.0012,0.0012,0,0.0163,0.0125,0.0102,0.0051,0.0029,-0.0009,-0.0027,-0.0052,-0.0071,-0.0079,-0.01,-0.0082,-0.0076,-0.008,-0.0058,-0.0072,-0.0055,-0.0034,-0.0002,-0.0035,-0.0011,-0.001,0.0005,0.0006,0.0007,0.0008,0,0,0.015,0.008,0.007,0.0038,-0.0009,-0.0034,-0.0064,-0.0091,-0.0108,-0.0136,-0.0157,-0.0154,-0.0152,-0.0136,-0.0118,-0.0112,-0.0127,-0.0092,-0.0089,-0.008,-0.0098,-0.0101,-0.01,-0.0116,-0.0117,-0.0117,-0.0077,0,0.0111,0.0036,0.0012,-0.0051,-0.0092,-0.0105,-0.0126,-0.0147,-0.0159,-0.0179,-0.0168,-0.0176,-0.0168,-0.0171,-0.0169,-0.0136,-0.0128,-0.0139,-0.006,-0.0058,-0.0062,-0.01,-0.0118,-0.0076,-0.0076,-0.0075,-0.0075,0,0.0062,0.0017,-0.0048,-0.0105,-0.0122,-0.0148,-0.018,-0.0202,-0.0211,-0.022,-0.0229,-0.0221,-0.022,-0.0206,-0.0175,-0.0187,-0.0153,-0.0127,-0.0124,-0.0096,-0.006,-0.0032,-0.0073,-0.0074,-0.0074,-0.0074,-0.0074,0,0.0053,-0.0026,-0.0076,-0.0099,-0.0157,-0.0177,-0.0197,-0.0214,-0.0226,-0.024,-0.0248,-0.0249,-0.024,-0.0217,-0.0163,-0.0177,-0.0117,-0.0118,-0.0085,-0.0084,-0.0055,-0.0051,-0.0091,-0.0091,-0.0091,-0.0091,-0.0092,0,0.0013,-0.0029,-0.0082,-0.0112,-0.0158,-0.0189,-0.0222,-0.0238,-0.0252,-0.0264,-0.0265,-0.0266,-0.0245,-0.0207,-0.017,-0.0122,-0.0114,-0.0101,-0.008,-0.0091,-0.0091,-0.0055,-0.0051,-0.009,-0.009,-0.0091,-0.0091,0,-0.0,-0.0035,-0.0094,-0.0152,-0.0166,-0.0197,-0.0235,-0.0256,-0.0262,-0.0277,-0.0281,-0.0274,-0.0243,-0.0197,-0.0141,-0.0121,-0.0073,-0.0045,-0.0052,-0.0029,-0.0055,-0.0056,-0.0045,-0.0045,-0.0044,-0.0044,-0.0044,0,-0.002,-0.005,-0.0112,-0.0141,-0.0169,-0.021,-0.0236,-0.0258,-0.0272,-0.0276,-0.028,-0.0257,-0.0247,-0.017,-0.0126,-0.006,-0.0044,-0.0018,-0.0066,-0.0073,-0.0053,-0.0054,-0.0055,-0.0044,-0.0044,-0.0044,-0.0044,0,-0.0053,-0.0065,-0.0111,-0.0159,-0.0196,-0.0243,-0.0274,-0.0272,-0.0291,-0.0295,-0.0288,-0.0265,-0.0224,-0.0184,-0.0114,-0.0064,-0.0049,-0.0018,-0.0019,-0.0064,-0.0072,-0.0052,-0.0053,-0.0044,-0.0044,-0.0044,-0.0044,0,-0.007,-0.0102,-0.0146,-0.0191,-0.0235,-0.027,-0.0278,-0.0297,-0.0308,-0.0299,-0.0291,-0.0256,-0.0239,-0.0183,-0.0116,-0.0075,-0.0092,-0.0091,-0.0088,-0.0088,-0.0117,-0.0135,-0.0117,0,0,0,0,0,-0.0092,-0.0133,-0.0178,-0.0229,-0.0264,-0.0292,-0.0312,-0.031,-0.0301,-0.0305,-0.0301,-0.0266,-0.0213,-0.0183,-0.0148,-0.0121,-0.0076,-0.008,-0.0071,-0.0042,-0.0042,-0.0071,0,0,0,0,0,0,-0.0118,-0.016,-0.0189,-0.0249,-0.0281,-0.0326,-0.0339,-0.033,-0.0323,-0.0307,-0.0275,-0.0272,-0.021,-0.024,-0.0155,-0.0142,-0.0135,-0.0054,-0.0054,-0.0042,-0.0042,-0.0043,-0.0072,0,0,0,0,0]}]]